QPF
0.00 0.01 0.01 0.01 0.02 0.02 0.02 0.01 0.01 0.01 0.01 0.02 0.02 0.02 0.03 0.03 0.03 0.04 0.04 0.03 0.04 0.06 0.09 0.08 0.07 0.06 0.07 0.10 0.12 0.12 0.10 0.09 0.08 0.06 0.04 0.03 0.03 0.03 0.04 0.05 0.07 0.08 0.10
0.00 0.00 0.01 0.02 0.03 0.03 0.02 0.01 0.01 0.01 0.01 0.02 0.02 0.02 0.02 0.02 0.02 0.03 0.03 0.04 0.05 0.07 0.10 0.09 0.07 0.07 0.07 0.08 0.10 0.09 0.08 0.06 0.05 0.04 0.03 0.02 0.02 0.02 0.03 0.04 0.05 0.07 0.08
0.00 0.00 0.02 0.04 0.04 0.03 0.03 0.02 0.01 0.02 0.03 0.03 0.03 0.02 0.02 0.02 0.02 0.02 0.02 0.04 0.05 0.06 0.09 0.09 0.08 0.08 0.08 0.07 0.07 0.07 0.07 0.05 0.04 0.03 0.02 0.01 0.02 0.02 0.03 0.06 0.05 0.05 0.06
0.00 0.00 0.02 0.03 0.03 0.03 0.03 0.02 0.02 0.02 0.02 0.03 0.04 0.04 0.04 0.04 0.04 0.02 0.03 0.04 0.05 0.06 0.08 0.07 0.06 0.07 0.07 0.06 0.06 0.06 0.05 0.04 0.03 0.02 0.02 0.02 0.02 0.03 0.04 0.06 0.07 0.07 0.07
0.00 0.01 0.02 0.03 0.03 0.04 0.04 0.03 0.02 0.02 0.02 0.03 0.04 0.05 0.06 0.05 0.06 0.05 0.04 0.05 0.06 0.05 0.06 0.07 0.07 0.06 0.06 0.05 0.04 0.04 0.03 0.03 0.02 0.02 0.02 0.03 0.04 0.05 0.06 0.08 0.07 0.07 0.08
0.00 0.01 0.02 0.03 0.05 0.05 0.04 0.03 0.03 0.03 0.03 0.03 0.04 0.04 0.04 0.04 0.05 0.07 0.06 0.06 0.06 0.06 0.06 0.07 0.07 0.07 0.07 0.06 0.04 0.03 0.03 0.03 0.02 0.02 0.02 0.04 0.05 0.06 0.08 0.07 0.05 0.05 0.07
0.00 0.01 0.02 0.03 0.05 0.04 0.05 0.05 0.04 0.04 0.05 0.05 0.05 0.04 0.04 0.05 0.05 0.06 0.06 0.06 0.05 0.06 0.06 0.06 0.05 0.05 0.05 0.04 0.04 0.03 0.03 0.02 0.02 0.03 0.03 0.03 0.05 0.06 0.08 0.07 0.04 0.04 0.06
0.01 0.02 0.03 0.03 0.04 0.04 0.05 0.06 0.05 0.05 0.05 0.05 0.05 0.04 0.04 0.06 0.06 0.06 0.06 0.05 0.05 0.05 0.05 0.05 0.04 0.04 0.04 0.03 0.02 0.02 0.02 0.02 0.02 0.02 0.03 0.04 0.05 0.05 0.06 0.05 0.04 0.04 0.05
0.03 0.03 0.04 0.04 0.04 0.05 0.04 0.06 0.06 0.05 0.06 0.05 0.05 0.05 0.04 0.05 0.06 0.06 0.05 0.04 0.04 0.04 0.04 0.03 0.02 0.02 0.03 0.03 0.02 0.02 0.02 0.01 0.02 0.03 0.04 0.04 0.04 0.06 0.06 0.04 0.04 0.04 0.04
0.03 0.03 0.04 0.04 0.04 0.04 0.04 0.06 0.07 0.06 0.06 0.06 0.06 0.06 0.04 0.04 0.05 0.06 0.05 0.03 0.03 0.03 0.02 0.02 0.02 0.03 0.02 0.02 0.01 0.01 0.02 0.02 0.02 0.02 0.03 0.03 0.03 0.04 0.05 0.04 0.03 0.03 0.03
0.06 0.05 0.04 0.04 0.04 0.05 0.06 0.06 0.07 0.07 0.07 0.08 0.07 0.07 0.05 0.04 0.05 0.06 0.06 0.03 0.03 0.02 0.02 0.02 0.02 0.02 0.02 0.02 0.01 0.01 0.01 0.02 0.02 0.02 0.02 0.02 0.02 0.02 0.03 0.03 0.02 0.02 0.02
0.07 0.06 0.06 0.07 0.07 0.08 0.08 0.07 0.07 0.07 0.08 0.07 0.07 0.06 0.05 0.04 0.04 0.04 0.04 0.03 0.02 0.02 0.02 0.02 0.02 0.02 0.02 0.01 0.01 0.01 0.02 0.02 0.02 0.02 0.02 0.01 0.01 0.02 0.03 0.02 0.02 0.02 0.02
0.07 0.06 0.07 0.08 0.09 0.09 0.09 0.07 0.07 0.07 0.07 0.06 0.04 0.04 0.04 0.03 0.03 0.03 0.03 0.02 0.02 0.01 0.01 0.01 0.02 0.01 0.01 0.01 0.01 0.01 0.02 0.02 0.02 0.02 0.01 0.01 0.02 0.02 0.03 0.03 0.02 0.02 0.02
0.06 0.06 0.06 0.06 0.07 0.08 0.08 0.07 0.06 0.06 0.05 0.04 0.03 0.02 0.03 0.03 0.03 0.02 0.02 0.01 0.01 0.01 0.01 0.01 0.02 0.01 0.01 0.01 0.01 0.01 0.02 0.02 0.03 0.02 0.02 0.02 0.03 0.03 0.03 0.03 0.03 0.03 0.02
0.05 0.05 0.05 0.06 0.06 0.06 0.06 0.07 0.06 0.05 0.05 0.05 0.04 0.03 0.02 0.03 0.03 0.02 0.02 0.02 0.01 0.01 0.01 0.01 0.01 0.01 0.01 0.01 0.01 0.01 0.02 0.01 0.02 0.02 0.02 0.03 0.03 0.02 0.02 0.02 0.03 0.03 0.02
0.05 0.05 0.06 0.07 0.06 0.05 0.05 0.05 0.05 0.04 0.04 0.04 0.03 0.03 0.02 0.02 0.02 0.02 0.02 0.02 0.02 0.02 0.01 0.01 0.01 0.01 0.02 0.01 0.01 0.01 0.01 0.01 0.02 0.02 0.02 0.02 0.02 0.02 0.02 0.02 0.02 0.02 0.02
0.04 0.05 0.06 0.07 0.06 0.05 0.04 0.03 0.03 0.04 0.03 0.03 0.03 0.03 0.02 0.02 0.02 0.02 0.02 0.01 0.01 0.01 0.01 0.01 0.01 0.02 0.01 0.01 0.01 0.01 0.01 0.01 0.01 0.02 0.02 0.02 0.02 0.02 0.02 0.01 0.01 0.02 0.02
0.03 0.04 0.04 0.05 0.05 0.04 0.03 0.03 0.03 0.03 0.03 0.02 0.03 0.03 0.02 0.02 0.02 0.02 0.01 0.01 0.02 0.02 0.02 0.02 0.02 0.02 0.02 0.02 0.02 0.02 0.02 0.02 0.02 0.02 0.01 0.01 0.02 0.02 0.02 0.02 0.02 0.02 0.02
0.01 0.02 0.02 0.02 0.02 0.02 0.02 0.02 0.02 0.02 0.02 0.02 0.02 0.02 0.02 0.02 0.01 0.01 0.01 0.01 0.02 0.03 0.03 0.02 0.02 0.02 0.02 0.02 0.02 0.02 0.02 0.02 0.02 0.02 0.02 0.01 0.01 0.02 0.02 0.02 0.02 0.02 0.02
0.01 0.01 0.01 0.01 0.01 0.01 0.01 0.01 0.01 0.01 0.01 0.01 0.01 0.02 0.02 0.02 0.01 0.01 0.01 0.01 0.02 0.03 0.03 0.03 0.02 0.02 0.02 0.02 0.02 0.03 0.03 0.03 0.02 0.02 0.02 0.01 0.01 0.02 0.02 0.02 0.02 0.02 0.02
0.01 0.01 0.01 0.01 0.01 0.01 0.01 0.01 0.01 0.01 0.01 0.01 0.01 0.02 0.02 0.02 0.02 0.02 0.02 0.02 0.03 0.03 0.02 0.03 0.02 0.02 0.02 0.02 0.02 0.03 0.03 0.03 0.03 0.03 0.02 0.02 0.02 0.02 0.02 0.01 0.01 0.02 0.02
0.01 0.01 0.01 0.01 0.00 0.01 0.01 0.01 0.01 0.01 0.01 0.01 0.01 0.01 0.01 0.01 0.02 0.02 0.02 0.02 0.03 0.03 0.03 0.03 0.03 0.02 0.02 0.02 0.02 0.03 0.03 0.03 0.04 0.03 0.03 0.02 0.02 0.02 0.02 0.02 0.02 0.02 0.02
0.01 0.01 0.01 0.01 0.01 0.00 0.00 0.00 0.00 0.00 0.00 0.01 0.01 0.01 0.01 0.01 0.01 0.02 0.02 0.02 0.02 0.02 0.03 0.03 0.03 0.02 0.02 0.02 0.02 0.02 0.03 0.03 0.04 0.03 0.03 0.02 0.02 0.02 0.02 0.02 0.02 0.02 0.02
0.01 0.01 0.01 0.01 0.01 0.01 0.00 0.00 0.00 0.00 0.00 0.01 0.01 0.01 0.01 0.01 0.01 0.01 0.02 0.02 0.02 0.02 0.02 0.03 0.03 0.02 0.02 0.02 0.02 0.02 0.03 0.03 0.04 0.04 0.03 0.03 0.02 0.02 0.02 0.02 0.02 0.02 0.02
0.01 0.01 0.01 0.01 0.01 0.01 0.00 0.00 0.00 0.00 0.00 0.00 0.01 0.01 0.01 0.01 0.01 0.01 0.01 0.02 0.02 0.03 0.03 0.03 0.03 0.02 0.02 0.02 0.02 0.03 0.03 0.04 0.03 0.04 0.04 0.03 0.02 0.02 0.02 0.02 0.01 0.01 0.01
0.01 0.01 0.01 0.01 0.01 0.01 0.00 0.00 0.00 0.00 0.00 0.00 0.01 0.01 0.01 0.01 0.01 0.01 0.01 0.02 0.02 0.02 0.03 0.03 0.03 0.03 0.02 0.02 0.03 0.03 0.04 0.03 0.03 0.03 0.04 0.03 0.02 0.02 0.02 0.02 0.01 0.02 0.02
MSLP
1013.79 1014.65 1015.41 1016.06 1016.63 1017.13 1017.59 1018.01 1018.40 1018.76 1019.05 1019.25 1019.33 1019.27 1019.05 1018.69 1018.21 1017.63 1017.00 1016.35 1015.70 1015.06 1014.44 1013.80 1013.13 1012.38 1011.52 1010.52 1009.36 1008.04 1006.55 1004.88 1003.06 1001.10 999.01 996.83 994.60 992.35 990.15 988.07 986.17 984.54 983.24
1013.45 1014.33 1015.11 1015.79 1016.38 1016.89 1017.36 1017.80 1018.20 1018.57 1018.87 1019.08 1019.14 1019.06 1018.80 1018.39 1017.84 1017.19 1016.48 1015.76 1015.05 1014.37 1013.72 1013.09 1012.44 1011.73 1010.93 1009.99 1008.89 1007.61 1006.13 1004.45 1002.59 1000.56 998.38 996.08 993.72 991.35 989.04 986.86 984.90 983.22 981.89
1013.13 1014.04 1014.84 1015.53 1016.13 1016.66 1017.13 1017.57 1017.97 1018.33 1018.62 1018.81 1018.86 1018.75 1018.47 1018.03 1017.44 1016.74 1015.99 1015.22 1014.46 1013.74 1013.06 1012.41 1011.75 1011.06 1010.27 1009.36 1008.28 1007.02 1005.56 1003.89 1002.03 999.98 997.78 995.46 993.07 990.68 988.35 986.16 984.19 982.50 981.18
1012.84 1013.78 1014.61 1015.31 1015.92 1016.44 1016.90 1017.32 1017.70 1018.03 1018.30 1018.46 1018.48 1018.35 1018.05 1017.59 1016.99 1016.29 1015.51 1014.72 1013.94 1013.19 1012.48 1011.79 1011.10 1010.37 1009.57 1008.64 1007.56 1006.31 1004.86 1003.23 1001.41 999.41 997.27 995.02 992.71 990.39 988.14 986.02 984.11 982.48 981.19
1012.61 1013.57 1014.42 1015.13 1015.74 1016.25 1016.69 1017.07 1017.41 1017.70 1017.91 1018.02 1018.01 1017.85 1017.54 1017.08 1016.49 1015.80 1015.05 1014.26 1013.48 1012.72 1011.97 1011.24 1010.49 1009.70 1008.84 1007.86 1006.76 1005.50 1004.08 1002.50 1000.76 998.88 996.87 994.78 992.64 990.51 988.43 986.47 984.69 983.15 981.92
1012.45 1013.42 1014.27 1015.00 1015.59 1016.09 1016.49 1016.83 1017.11 1017.33 1017.47 1017.52 1017.46 1017.28 1016.96 1016.51 1015.95 1015.30 1014.58 1013.83 1013.06 1012.29 1011.52 1010.73 1009.91 1009.04 1008.10 1007.06 1005.91 1004.65 1003.26 1001.75 1000.13 998.42 996.62 994.76 992.87 990.99 989.16 987.42 985.84 984.45 983.31
1012.34 1013.32 1014.17 1014.89 1015.48 1015.94 1016.31 1016.60 1016.81 1016.95 1017.01 1016.99 1016.88 1016.66 1016.33 1015.90 1015.37 1014.77 1014.11 1013.40 1012.66 1011.90 1011.10 1010.26 1009.37 1008.42 1007.39 1006.28 1005.08 1003.81 1002.47 1001.06 999.59 998.08 996.53 994.95 993.37 991.79 990.25 988.79 987.44 986.23 985.22
1012.30 1013.26 1014.09 1014.80 1015.37 1015.81 1016.13 1016.36 1016.50 1016.57 1016.55 1016.46 1016.29 1016.03 1015.70 1015.28 1014.80 1014.25 1013.64 1012.99 1012.28 1011.52 1010.70 1009.82 1008.86 1007.83 1006.72 1005.55 1004.32 1003.06 1001.77 1000.47 999.18 997.89 996.61 995.33 994.07 992.82 991.60 990.42 989.32 988.31 987.45
1012.31 1013.22 1014.03 1014.70 1015.25 1015.66 1015.94 1016.12 1016.20 1016.20 1016.11 1015.95 1015.73 1015.44 1015.09 1014.69 1014.24 1013.74 1013.19 1012.59 1011.91 1011.16 1010.33 1009.41 1008.40 1007.30 1006.14 1004.92 1003.68 1002.44 1001.23 1000.06 998.94 997.87 996.86 995.88 994.92 993.98 993.06 992.16 991.30 990.50 989.80
1012.36 1013.21 1013.97 1014.60 1015.11 1015.48 1015.73 1015.87 1015.90 1015.84 1015.70 1015.49 1015.22 1014.91 1014.55 1014.16 1013.74 1013.28 1012.77 1012.21 1011.56 1010.83 1009.99 1009.04 1007.99 1006.86 1005.66 1004.43 1003.20 1002.00 1000.88 999.84 998.89 998.04 997.26 996.54 995.85 995.19 994.53 993.87 993.23 992.62 992.07
1012.46 1013.23 1013.91 1014.49 1014.95 1015.29 1015.51 1015.61 1015.61 1015.51 1015.33 1015.08 1014.79 1014.45 1014.09 1013.71 1013.31 1012.87 1012.40 1011.86 1011.23 1010.50 1009.66 1008.71 1007.65 1006.50 1005.30 1004.08 1002.89 1001.77 1000.74 999.83 999.05 998.37 997.80 997.29 996.82 996.37 995.92 995.46 995.00 994.55 994.14
1012.63 1013.30 1013.89 1014.40 1014.80 1015.10 1015.28 1015.36 1015.33 1015.20 1015.00 1014.73 1014.42 1014.08 1013.71 1013.33 1012.94 1012.52 1012.06 1011.53 1010.92 1010.20 1009.37 1008.42 1007.37 1006.24 1005.07 1003.90 1002.77 1001.74 1000.82 1000.03 999.39 998.86 998.44 998.10 997.79 997.49 997.19 996.87 996.53 996.21 995.92
1012.88 1013.44 1013.93 1014.35 1014.69 1014.94 1015.08 1015.13 1015.08 1014.94 1014.72 1014.45 1014.12 1013.77 1013.40 1013.02 1012.63 1012.21 1011.75 1011.23 1010.62 1009.91 1009.09 1008.17 1007.14 1006.06 1004.95 1003.85 1002.81 1001.88 1001.07 1000.40 999.87 999.47 999.17 998.93 998.73 998.53 998.31 998.08 997.84 997.60 997.39
1013.22 1013.67 1014.06 1014.39 1014.65 1014.84 1014.94 1014.95 1014.88 1014.73 1014.50 1014.22 1013.88 1013.52 1013.15 1012.76 1012.35 1011.92 1011.45 1010.93 1010.32 1009.62 1008.83 1007.93 1006.97 1005.95 1004.91 1003.91 1002.98 1002.15 1001.45 1000.89 1000.47 1000.16 999.93 999.77 999.62 999.48 999.31 999.13 998.94 998.75 998.61
1013.66 1014.00 1014.28 1014.52 1014.70 1014.82 1014.87 1014.85 1014.75 1014.57 1014.33 1014.04 1013.69 1013.32 1012.93 1012.52 1012.09 1011.64 1011.16 1010.62 1010.02 1009.33 1008.57 1007.72 1006.82 1005.88 1004.95 1004.05 1003.23 1002.52 1001.93 1001.46 1001.12 1000.88 1000.71 1000.58 1000.47 1000.35 1000.21 1000.06 999.89 999.75 999.64
1014.18 1014.41 1014.60 1014.75 1014.85 1014.89 1014.88 1014.81 1014.68 1014.48 1014.21 1013.90 1013.53 1013.14 1012.72 1012.29 1011.83 1011.36 1010.86 1010.31 1009.71 1009.04 1008.32 1007.53 1006.70 1005.86 1005.03 1004.25 1003.54 1002.94 1002.44 1002.06 1001.79 1001.60 1001.47 1001.37 1001.28 1001.18 1001.06 1000.92 1000.78 1000.67 1000.60
1014.73 1014.88 1014.98 1015.04 1015.06 1015.04 1014.97 1014.85 1014.66 1014.43 1014.13 1013.78 1013.39 1012.97 1012.52 1012.06 1011.57 1011.07 1010.55 1010.00 1009.41 1008.77 1008.09 1007.37 1006.62 1005.88 1005.15 1004.48 1003.88 1003.37 1002.97 1002.66 1002.44 1002.29 1002.20 1002.12 1002.05 1001.97 1001.88 1001.77 1001.66 1001.58 1001.55
1015.26 1015.34 1015.37 1015.36 1015.31 1015.22 1015.09 1014.91 1014.68 1014.40 1014.06 1013.68 1013.25 1012.80 1012.31 1011.82 1011.31 1010.79 1010.25 1009.70 1009.12 1008.52 1007.89 1007.24 1006.59 1005.94 1005.32 1004.74 1004.24 1003.82 1003.49 1003.24 1003.07 1002.96 1002.89 1002.84 1002.80 1002.75 1002.69 1002.63 1002.57 1002.54 1002.55
1015.72 1015.75 1015.72 1015.65 1015.54 1015.39 1015.20 1014.97 1014.69 1014.36 1013.98 1013.56 1013.10 1012.61 1012.10 1011.57 1011.04 1010.50 1009.97 1009.43 1008.88 1008.32 1007.75 1007.17 1006.60 1006.04 1005.52 1005.04 1004.62 1004.27 1003.99 1003.79 1003.66 1003.58 1003.54 1003.52 1003.52 1003.51 1003.51 1003.51 1003.51 1003.54 1003.60
1016.07 1016.06 1015.99 1015.86 1015.70 1015.50 1015.26 1014.98 1014.66 1014.28 1013.87 1013.41 1012.92 1012.40 1011.86 1011.32 1010.77 1010.24 1009.71 1009.19 1008.68 1008.17 1007.67 1007.17 1006.68 1006.21 1005.77 1005.36 1005.01 1004.72 1004.49 1004.33 1004.22 1004.17 1004.16 1004.18 1004.21 1004.26 1004.32 1004.38 1004.46 1004.56 1004.68
1016.29 1016.24 1016.13 1015.97 1015.77 1015.52 1015.24 1014.92 1014.55 1014.15 1013.70 1013.21 1012.70 1012.16 1011.61 1011.06 1010.52 1010.00 1009.49 1009.00 1008.54 1008.09 1007.65 1007.23 1006.82 1006.43 1006.06 1005.72 1005.43 1005.19 1004.99 1004.86 1004.77 1004.74 1004.75 1004.81 1004.88 1004.99 1005.11 1005.24 1005.39 1005.55 1005.73
1016.37 1016.29 1016.15 1015.96 1015.72 1015.44 1015.13 1014.77 1014.38 1013.95 1013.48 1012.97 1012.44 1011.90 1011.35 1010.81 1010.29 1009.79 1009.32 1008.87 1008.46 1008.07 1007.70 1007.35 1007.01 1006.69 1006.39 1006.12 1005.87 1005.67 1005.50 1005.39 1005.32 1005.31 1005.34 1005.42 1005.54 1005.68 1005.86 1006.05 1006.26 1006.48 1006.71
1016.34 1016.23 1016.06 1015.84 1015.58 1015.28 1014.93 1014.56 1014.14 1013.69 1013.21 1012.70 1012.18 1011.64 1011.11 1010.59 1010.10 1009.63 1009.20 1008.81 1008.45 1008.12 1007.82 1007.53 1007.26 1007.01 1006.77 1006.54 1006.34 1006.17 1006.04 1005.94 1005.89 1005.90 1005.95 1006.04 1006.18 1006.36 1006.57 1006.80 1007.05 1007.31 1007.57
1016.23 1016.09 1015.90 1015.66 1015.37 1015.05 1014.69 1014.30 1013.87 1013.42 1012.94 1012.44 1011.93 1011.42 1010.92 1010.44 1009.98 1009.56 1009.17 1008.83 1008.52 1008.25 1008.00 1007.78 1007.57 1007.37 1007.18 1007.01 1006.85 1006.72 1006.61 1006.54 1006.51 1006.52 1006.58 1006.69 1006.85 1007.04 1007.27 1007.52 1007.79 1008.06 1008.32
1016.09 1015.92 1015.71 1015.45 1015.15 1014.81 1014.44 1014.04 1013.61 1013.17 1012.71 1012.23 1011.76 1011.28 1010.82 1010.37 1009.96 1009.58 1009.24 1008.95 1008.69 1008.46 1008.27 1008.10 1007.94 1007.79 1007.66 1007.53 1007.41 1007.31 1007.24 1007.19 1007.18 1007.21 1007.28 1007.40 1007.56 1007.76 1007.99 1008.24 1008.50 1008.76 1009.02
1015.93 1015.75 1015.52 1015.25 1014.93 1014.59 1014.22 1013.82 1013.42 1012.99 1012.56 1012.12 1011.68 1011.25 1010.84 1010.44 1010.07 1009.74 1009.45 1009.19 1008.98 1008.79 1008.64 1008.51 1008.39 1008.29 1008.20 1008.11 1008.04 1007.98 1007.94 1007.92 1007.93 1007.98 1008.07 1008.19 1008.35 1008.54 1008.76 1008.99 1009.24 1009.48 1009.72
Thickness
5562 5559 5557 5554 5552 5549 5547 5546 5544 5543 5541 5539 5537 5535 5533 5531 5528 5526 5523 5520 5518 5517 5515 5514 5513 5512 5511 5511 5510 5511 5511 5512 5513 5514 5513 5512 5512 5513 5514 5515 5517 5519 5522
5555 5552 5549 5546 5544 5541 5539 5537 5536 5535 5534 5532 5530 5529 5528 5525 5523 5521 5518 5515 5513 5511 5510 5508 5507 5505 5503 5503 5504 5504 5504 5504 5505 5505 5504 5503 5503 5503 5504 5505 5507 5509 5511
5547 5545 5542 5539 5536 5534 5531 5529 5528 5527 5527 5526 5524 5523 5522 5520 5517 5514 5512 5510 5508 5505 5503 5502 5500 5498 5497 5496 5497 5497 5496 5496 5497 5496 5495 5495 5494 5493 5494 5496 5498 5500 5502
5539 5537 5535 5532 5529 5526 5523 5521 5520 5520 5520 5520 5518 5518 5516 5514 5511 5509 5506 5505 5502 5499 5497 5494 5493 5491 5490 5490 5490 5489 5489 5488 5488 5487 5487 5487 5486 5485 5485 5487 5490 5491 5492
5532 5530 5527 5523 5520 5517 5515 5514 5514 5514 5514 5513 5513 5512 5511 5508 5506 5503 5501 5499 5497 5494 5491 5488 5486 5485 5484 5482 5482 5483 5482 5481 5480 5480 5479 5479 5478 5477 5477 5478 5480 5482 5483
5525 5522 5519 5516 5513 5510 5509 5509 5509 5509 5508 5508 5507 5507 5505 5503 5500 5497 5495 5493 5490 5488 5485 5482 5480 5478 5477 5476 5476 5476 5475 5474 5474 5473 5472 5472 5471 5469 5469 5469 5470 5471 5473
5519 5516 5512 5509 5506 5505 5504 5504 5504 5503 5503 5502 5501 5501 5499 5497 5494 5492 5490 5486 5483 5481 5479 5477 5474 5473 5471 5472 5471 5470 5468 5466 5466 5466 5465 5465 5463 5461 5460 5460 5459 5460 5460
5512 5509 5506 5503 5501 5499 5498 5498 5498 5497 5497 5496 5495 5494 5492 5490 5487 5486 5482 5479 5477 5474 5472 5470 5469 5467 5466 5465 5464 5462 5461 5460 5459 5458 5457 5456 5454 5452 5450 5450 5450 5450 5450
5506 5503 5500 5498 5496 5494 5493 5493 5492 5491 5491 5490 5488 5487 5485 5483 5480 5478 5475 5473 5470 5468 5466 5464 5463 5462 5460 5458 5458 5457 5455 5453 5451 5450 5448 5447 5445 5444 5442 5442 5442 5442 5442
5499 5497 5495 5492 5490 5489 5488 5486 5485 5484 5484 5483 5481 5479 5477 5475 5472 5470 5468 5466 5464 5461 5460 5458 5456 5455 5454 5452 5452 5451 5449 5447 5445 5443 5441 5439 5438 5437 5435 5434 5433 5433 5433
5492 5490 5488 5486 5484 5483 5481 5480 5478 5477 5476 5475 5474 5472 5470 5467 5464 5463 5461 5459 5457 5455 5453 5452 5450 5448 5447 5446 5445 5443 5441 5439 5437 5436 5434 5432 5431 5429 5428 5426 5425 5424 5424
5483 5482 5480 5479 5477 5476 5475 5473 5471 5469 5468 5467 5466 5464 5461 5459 5457 5455 5454 5452 5450 5449 5447 5445 5443 5441 5440 5439 5437 5435 5432 5430 5429 5428 5426 5424 5422 5421 5420 5418 5417 5415 5414
5476 5475 5473 5471 5469 5468 5468 5467 5465 5463 5460 5459 5458 5456 5454 5451 5449 5448 5446 5444 5443 5441 5439 5438 5436 5435 5433 5432 5429 5427 5425 5423 5422 5420 5418 5416 5414 5413 5412 5411 5410 5409 5408
5469 5467 5466 5464 5463 5461 5459 5459 5457 5455 5454 5452 5450 5449 5446 5444 5443 5441 5439 5438 5436 5434 5433 5431 5429 5428 5425 5423 5421 5420 5418 5416 5414 5412 5410 5409 5407 5406 5406 5405 5405 5404 5403
5461 5459 5457 5456 5455 5453 5451 5449 5449 5447 5447 5445 5444 5442 5440 5439 5436 5433 5432 5432 5430 5428 5426 5425 5423 5421 5419 5417 5415 5412 5410 5408 5406 5405 5403 5403 5402 5401 5400 5400 5398 5398 5397
5452 5451 5449 5447 5446 5445 5444 5442 5439 5438 5437 5436 5436 5434 5433 5431 5428 5427 5425 5424 5422 5421 5420 5418 5416 5414 5412 5410 5408 5406 5404 5402 5399 5398 5397 5396 5395 5395 5394 5393 5392 5391 5391
5443 5442 5440 5439 5438 5436 5436 5435 5433 5431 5429 5428 5427 5426 5425 5423 5421 5420 5418 5417 5415 5414 5412 5411 5409 5407 5405 5403 5401 5399 5397 5394 5392 5391 5390 5390 5389 5389 5388 5387 5387 5385 5384
5433 5431 5430 5430 5429 5428 5427 5426 5425 5424 5423 5421 5418 5417 5416 5415 5413 5412 5410 5409 5408 5406 5405 5403 5401 5399 5397 5395 5394 5392 5390 5388 5386 5386 5385 5384 5383 5383 5382 5381 5380 5379 5378
5423 5422 5421 5420 5419 5418 5418 5417 5416 5414 5413 5412 5410 5409 5407 5406 5405 5404 5402 5402 5401 5399 5397 5395 5393 5391 5390 5388 5387 5385 5384 5382 5381 5380 5379 5378 5378 5377 5377 5376 5374 5373 5372
5412 5410 5411 5411 5410 5409 5408 5407 5406 5405 5404 5402 5401 5399 5398 5397 5397 5395 5394 5393 5392 5391 5389 5388 5386 5385 5383 5382 5381 5379 5378 5377 5376 5375 5374 5373 5372 5372 5371 5370 5369 5367 5367
5402 5401 5400 5401 5400 5399 5398 5396 5395 5394 5393 5392 5391 5390 5389 5388 5388 5387 5386 5385 5384 5383 5381 5380 5379 5378 5377 5376 5375 5374 5373 5372 5371 5370 5369 5368 5368 5367 5366 5365 5363 5362 5362
5393 5392 5392 5391 5390 5389 5388 5386 5385 5384 5384 5383 5382 5380 5379 5379 5378 5378 5377 5376 5375 5375 5374 5373 5373 5372 5371 5370 5369 5369 5368 5367 5366 5365 5364 5363 5362 5361 5361 5360 5359 5358 5357
5383 5383 5382 5381 5380 5379 5379 5377 5376 5375 5374 5373 5372 5371 5370 5370 5369 5369 5369 5368 5367 5367 5367 5367 5367 5367 5366 5365 5365 5364 5363 5363 5361 5360 5359 5358 5357 5356 5356 5355 5355 5354 5354
5373 5373 5373 5372 5371 5370 5369 5368 5367 5366 5365 5364 5363 5362 5362 5361 5361 5361 5361 5360 5359 5360 5360 5361 5361 5361 5361 5361 5360 5360 5359 5358 5356 5355 5354 5354 5353 5352 5352 5351 5351 5351 5351
5364 5364 5363 5363 5362 5361 5360 5359 5359 5358 5357 5356 5355 5355 5354 5354 5353 5353 5353 5353 5353 5353 5353 5354 5355 5356 5357 5357 5357 5356 5355 5354 5353 5352 5351 5350 5350 5349 5348 5348 5348 5348 5348
5355 5354 5354 5353 5352 5351 5351 5351 5350 5349 5348 5348 5347 5347 5346 5346 5346 5346 5346 5346 5346 5346 5347 5348 5350 5351 5352 5353 5353 5353 5352 5352 5351 5350 5349 5348 5347 5347 5346 5346 5346 5346 5346